#timestamp,LO_Frequency,Hit,StdDev 
1625418015.0,286047001.0,N
1625418015.9,286047001.0,N
1625418035.8,286046998.6,N
1625418055.6,286046998.8,N
1625418075.4,286047000.9,N
1625418095.3,286047000.3,N
1625418115.1,286046999.9,N
1625418135.8,286047000.8,N
1625418155.7,286046998.6,N
1625418175.5,286047000.4,N
1625418225.4,286047000.6,E
1625418235.3,286047000.9,N
1625418255.1,286046998.7,P
1625418275.9,286046998.5,N
1625418295.7,286046998.1,N
1625418315.5,286047000.6,N
1625418335.4,286047000.4,N
1625418355.2,286047000.9,N
1625418375.1,286047000.6,N
1625418376.0,286047000.6,N
1625418395.8,286046998.3,N
1625418415.6,286046998.7,N
1625418435.5,286047000.8,N
1625418455.3,286047000.5,N
1625418475.1,286047000.4,N
1625418495.9,286047000.5,N
1625418515.7,286046998.1,N
1625418535.6,286047000.7,N
1625418555.4,286046998.5,N
1625418575.2,286046998.4,N
1625418595.1,286047001.0,N
1625418596.0,286047001.0,N
1625418615.8,286047000.8,N
1625418635.6,286046998.6,N
1625418655.5,286047000.7,N
1625418675.3,286046998.1,N
1625418695.2,286046998.6,N
1625418715.9,286047000.9,N
1625418735.7,286047001.0,N
1625418755.6,286047000.9,N
1625418775.4,286047000.3,N
1625418795.3,286047001.0,N
1625418815.1,286047000.5,N
1625418816.0,286047000.5,N
1625418835.8,286047000.9,N
1625418855.7,286046998.8,N
1625418875.5,286046998.9,N
1625418895.3,286046998.2,N
1625418915.2,286046999.7,N
1625418935.0,286047001.5,N
1625418935.9,286047001.5,N
1625418955.8,286047003.8,Y
1625418975.6,286047003.4,P
1625418995.4,286047005.6,P
1625419015.3,286047003.0,N
1625419035.1,286047005.1,N
1625419055.9,286047007.5,Y
1625419075.7,286047001.3,P
1625419095.5,286047003.6,P
1625419115.4,286047001.8,N
1625419135.2,286047002.5,N
1625419155.0,286047002.0,N
1625419155.9,286047002.0,N
1625419175.8,286047002.0,N
1625419195.6,286047001.7,N
1625419215.5,286047002.6,Y
1625419235.3,286046999.9,P
1625419255.1,286047000.9,N
1625419275.9,286046998.5,N
1625419295.7,286046998.3,N
1625419315.5,286046998.3,N
1625419335.4,286046998.8,N
1625419355.2,286046996.5,N
1625419375.1,286046996.7,N
1625419376.0,286046996.7,N
1625419395.8,286046997.9,N
1625419415.6,286046997.2,N
1625419435.5,286046997.2,N
1625419455.3,286046995.3,N
1625419475.1,286046997.5,N
1625419495.9,286046997.6,N
1625419515.7,286046997.7,N
1625419535.6,286046997.8,N
1625419555.4,286046997.9,N
1625419575.2,286046997.1,N
1625419595.1,286046997.8,N
1625419596.0,286046997.8,N
1625419615.8,286046995.3,Y
1625419635.6,286046996.7,P
1625419655.5,286046997.6,P
1625419675.3,286046997.2,P
1625419695.2,286046997.4,Y
1625419715.9,286046998.8,P
1625419735.7,286046996.7,P
1625419755.6,286046997.1,P
1625419775.4,286046995.3,Y
1625419795.2,286046996.8,P
1625419815.1,286046997.7,P
1625419816.0,286046997.7,P
1625419835.8,286046997.7,Y
1625419855.7,286047000.9,P
1625419875.5,286047000.3,N
1625419895.3,286047000.9,N
1625419915.2,286046999.9,N
1625419935.0,286047001.0,N
1625419935.9,286047001.0,N
1625419955.8,286047001.0,N
1625419975.6,286046998.8,N
1625419995.4,286046998.4,N
1625420015.3,286046999.0,N
1625420035.1,286047000.7,N
1625420055.8,286047000.7,N
1625420075.7,286047000.6,N
1625420095.5,286047001.2,N
1625420115.4,286047001.1,N
1625420135.2,286047001.2,N
1625420155.0,286046998.4,N
1625420155.9,286046998.4,N
1625420175.8,286047001.2,N
1625420195.6,286046998.4,N
1625420215.4,286047001.1,N
1625420235.3,286047000.7,N
1625420255.1,286047000.5,N
1625420275.9,286047002.7,N
1625420295.7,286046999.9,N
1625420315.5,286046999.8,N
1625420335.4,286046999.8,N
1625420355.2,286047002.4,N
1625420375.1,286047002.8,N
1625420376.0,286047002.8,N
1625420395.8,286047002.1,N
1625420415.6,286047001.7,N
1625420435.5,286046999.9,N
1625420455.3,286046999.7,N
1625420475.2,286047002.4,N
1625420495.9,286047002.5,N
1625420515.7,286047001.3,N
1625420535.6,286047002.8,N
1625420555.4,286047000.0,N
1625420575.3,286047000.0,N
1625420595.1,286047002.4,N
1625420596.0,286047002.4,N
1625420615.8,286047002.6,N
1625420635.7,286047002.0,N
1625420655.5,286047002.6,N
1625420675.3,286047002.4,N
1625420695.2,286046999.7,N
1625420715.0,286047002.8,N
1625420715.9,286047002.8,N
1625420735.8,286047002.2,N
1625420755.6,286047001.5,N
1625420775.4,286047002.1,N
1625420795.3,286047002.1,N
1625420815.1,286047001.4,N
1625420835.8,286047001.4,N
1625420855.7,286047001.7,N
1625420875.5,286047002.2,N
1625420895.4,286047002.3,N
1625420915.2,286047001.5,N
1625420935.0,286047002.7,N
1625420935.9,286047002.7,N
1625420955.8,286047001.5,N
1625420975.6,286047002.8,N
1625420995.4,286047001.7,N
1625421015.3,286047001.5,N
1625421035.1,286046999.9,N
1625421055.9,286047000.1,N
1625421075.7,286047000.2,N
1625421095.5,286046999.7,N
1625421115.4,286047000.5,N
1625421165.2,286047002.7,E
1625421175.2,286047000.5,N
1625421195.9,286046998.8,P
1625421215.7,286046999.5,N
1625421235.6,286046999.4,N
1625421255.4,286046998.7,N
1625421275.2,286046998.4,N
1625421295.1,286047000.5,N
1625421296.0,286047000.5,N
1625421315.8,286046998.2,N
1625421335.7,286046998.3,N
1625421355.5,286047000.7,N
1625421375.3,286047000.5,N
1625421395.2,286047000.9,N
1625421415.0,286047000.8,N
1625421415.9,286047000.8,N
1625421435.8,286047001.0,N
1625421455.6,286047000.4,N
1625421475.4,286046998.2,N
1625421495.3,286046998.8,N
1625421515.1,286046998.6,N
1625421535.8,286047001.2,N
1625421555.7,286047000.5,N
1625421575.5,286047000.6,N
1625421595.4,286047000.7,N
